Regional Weather Roundup
Issued by NWS Goodland, KS

Home | Current Version | Previous Version | Graphics & Text | Print | Product List | Glossary On
Versions: 1 2 3 4 5 6 7 8 9 10 11 12 13 14 15 16 17 18 19 20 21 22 23 24 25 26 27 28 29 30 31 32 33 34 35 36 37 38 39 40 41 42 43 44 45 46 47 48 49 50
000
ASUS43 KGLD 190308
RWRGLD

GOODLAND FORECAST AREA HOURLY WEATHER ROUNDUP
NATIONAL WEATHER SERVICE GOODLAND KS
900 PM MDT SAT APR 18 2015

...OFFICIAL OBSERVATIONS...

CITY           SKY/WX    TMP DP  RH WIND       PRES   REMARKS
GOODLAND KS    MOCLDY    46  43  89 NW9       29.81S
HILL CITY KS   CLOUDY    53  47  79 E6        29.81R
IMPERIAL NEB   CLOUDY    50  43  77 N15       29.83R
MCCOOK NEB     CLOUDY    53  47  79 E7        29.81R
AKRON CO       MOCLDY    42  40  92 NW12      29.87S
BURLINGTON CO  NOT AVBL
LIMON CO       LGT RAIN  41  36  82 N13       29.88R
$$

...UNOFFICIAL OBSERVATIONS...

CITY           SKY/WX    TMP DP  RH WIND       PRES   REMARKS
COLBY KS       CLOUDY    54  48  82 W8        29.79S
GOVE KS          N/A     57  32  39 MISG        N/A
LENORA KS        N/A     53  32  45 MISG        N/A
NORTON KS      CLEAR     54  46  76 CALM      29.80
SHARON SPRINGS   N/A     46  42  85 MISG        N/A
TRIBUNE KS     PTCLDY    50  45  81 NW10      29.83R
KIT CARSON CO    N/A     46  40  81 MISG        N/A
YUMA CO          N/A     45  40  83 N12         N/A
$$


USA.gov is the U.S. government's official web portal to all federal, state and local government web resources and services.